Regional Weather Roundup
Issued by NWS Boston, MA

Home | Current Version | Previous Version | Text Only | Print | Product List | Glossary On
Versions: 1 2 3 4 5 6 7 8 9 10 11 12 13 14 15 16 17 18 19 20 21 22 23 24 25 26 27 28 29 30 31 32 33 34 35 36 37 38 39 40 41 42 43 44 45 46 47 48 49 50
000
ASUS41 KBOX 222210
RWRBOX

REGIONAL WEATHER ROUNDUP
NATIONAL WEATHER SERVICE TAUNTON MA
600 PM EDT MON SEP 22 2014

NOTE:  "FAIR" INDICATES FEW OR NO CLOUDS BELOW 12,000 FEET WITH NO
SIGNIFICANT WEATHER AND/OR OBSTRUCTIONS TO VISIBILITY.  THE FOLLOWING
OBSERVATION LOCATIONS DO NOT REPORT PRESENT WEATHER...PROVINCETOWN...
SMITHFIELD...BLOCK ISLAND...KEENE...AND OXFORD.

MAZALL-222300-
EASTERN MASSACHUSETTS

CITY           SKY/WX    TMP DP  RH WIND       PRES   REMARKS
BOSTON         PTCLDY    66  41  40 W16G26    29.87R
BEVERLY        CLEAR     65  39  38 W13G22    29.85R
LAWRENCE       CLEAR     64  41  42 W13G23    29.87R
BEDFORD        CLEAR     62  41  46 W12       29.87R
BLUE HILL        N/A     63  42  46 W17G23    29.88R
NORWOOD        CLEAR     65  42  43 W16G24    29.88R
MARSHFIELD     NOT AVBL
PLYMOUTH       CLEAR     66  42  41 W15       29.88R
TAUNTON        CLEAR     66  41  40 W12G17    29.89R
NEW BEDFORD    CLEAR     67  44  43 W12G22    29.88R
$$

MAZALL-222300-
CAPE COD AND THE ISLANDS

CITY           SKY/WX    TMP DP  RH WIND       PRES   REMARKS
FALMOUTH       CLEAR     68  45  42 W15       29.88R
HYANNIS        CLEAR     71  44  37 W14G21    29.85R
CHATHAM        CLEAR     70  44  39 W7        29.86R
PROVINCETOWN   CLEAR     66  52  59 W16       29.85R
NANTUCKET      CLEAR     68  57  68 W15       29.87R
MARTHAS VNYRD  CLEAR     68  48  48 W9        29.88R
$$

MAZALL-222300-
CENTRAL AND WESTERN MASSACHUSETTS

CITY           SKY/WX    TMP DP  RH WIND       PRES   REMARKS
WORCESTER      CLEAR     57  40  52 W16G26    29.91R
FITCHBURG      CLEAR     62  42  47 W13G22    29.90R
ORANGE         CLEAR     57  38  48 W12G22    29.94R
SPRINGFIELD    CLEAR     60  42  50 NW9G23    29.94R
WESTFIELD      CLEAR     60  40  47 W20G31    29.94R
NORTH ADAMS    CLOUDY    52  39  61 W13G22    30.00R
PITTSFIELD     CLOUDY    51  38  60 VRB7G26   29.99R
$$

RIZALL-222300-
RHODE ISLAND

CITY           SKY/WX    TMP DP  RH WIND       PRES   REMARKS
PROVIDENCE     PTCLDY    66  43  43 W15G22    29.91R
NEWPORT        CLEAR     67  45  45 NW9       29.90R
BLOCK ISLAND   PTCLDY    66  50  55 W7        29.91R
WESTERLY       CLEAR     69  46  43 VRB7G16   29.91R
$$

CTZALL-222300-
CONNECTICUT

CITY           SKY/WX    TMP DP  RH WIND       PRES   REMARKS
BRADLEY INTL   PTCLDY    64  43  46 NW15      29.93R
HARTFORD       CLEAR     65  42  43 NW9       29.93R
BRIDGEPORT     CLEAR     67  44  43 W13G21    29.96R
DANBURY        CLEAR     62  42  47 W9G17     29.98R
GROTON         PTCLDY    68  48  48 NW8       29.90R
NEW HAVEN      CLEAR     68  45  43 NW12G17   29.94R
CHESTER        FAIR      64  46  52 NW8       29.94R
MERIDEN        CLEAR     66  44  45 NW14G21   29.93R
WILLIMANTIC    CLEAR     66  45  46 NW8       29.92R
OXFORD         PTCLDY   N/A N/A N/A W10G16    29.96
$$

MEZ002-015-021-024-NHZ003-005-008-011-012-014-VTZ005-008-222300-
NORTHERN NEW ENGLAND

CITY           SKY/WX    TMP DP  RH WIND       PRES   REMARKS
PORTLAND ME    PTCLDY    62  41  46 W16G28    29.82R
BANGOR ME      MOCLDY    57  41  55 NW18G24   29.77R
CONCORD NH     CLEAR     62  38  40 W18G29    29.85R
MANCHESTER NH  PTCLDY    64  40  41 W9G20     29.85R
NASHUA NH      PTCLDY    64  40  41 NW8G18    29.88R
PORTSMOUTH NH  PTCLDY    65  42  43 NW14      29.83R
JAFFREY NH     CLEAR     57  40  52 W12G21    29.91R
KEENE NH       PTCLDY    57  36  44 W7        29.93R
BURLINGTON VT  MOCLDY    53  37  54 NW14G23   29.99R
MT. WASHINGTON FOG       28  28 100 NW68G75     N/A  VSB 1/16WCI   7
$$

NYZ052-076-222300-
EASTERN NEW YORK

CITY           SKY/WX    TMP DP  RH WIND       PRES   REMARKS
ALBANY         MOCLDY    56  39  53 W20G26    30.02R
NEW YORK CITY  MOCLDY    66  43  43 NW13G24   29.98R
$$

ANZALL-222300-
MARINE OBSERVATIONS

STATION/POSITION TIME  TEMP    WIND        PRES    VSBY  WAVE
                       AIR SEA DIR/SP/G                  HT/PER
                 (UTC) (F)     (DEG/KT/KT) (MB)    (MI)  (FT/S)
BOSTON BUOY      2150   64 61  280/ 14/ 16 1011.2R         5/11
BUZZARDS BAY     2100          290/ 18/ 20 1011.7R
NANTUCKET SOUND  2150   69 68  270/ 17/ 19 1010.7R         2/ 4
MASS BAY-STELLWA 2104   65 61  270/ 14/ 19   N/A    1 5/8
ISLE OF SHOALS   2200   65     290/ 18/ 21 1009.5R
S OF BLOCK IS    2108      67                N/A           8/11
$$

......................KEY.........................
  SKY/WX - SKY CONDITION/PRESENT WEATHER
  TMP    - TEMPERATURE IN FAHRENHEIT
  DWPT   - DEWPOINT IN FAHRENHEIT
  RH     - RELATIVE HUMIDITY IN PERCENT
  WIND   - DIRECTION AND SPEED IN MPH
  PRES   - MEAN SEA LEVEL PRESSURE IN INCHES OF HG
  WCI    - WIND CHILL INDEX
  VSB    - VISIBILITY IN MILES
  HX     - HEAT INDEX
  TC     - TEMPERATURE IN CELSIUS
  VRB    - VARIABLE WIND DIRECTION
  N/A    - NOT AVAILABLE


USA.gov is the U.S. government's official web portal to all federal, state and local government web resources and services.